Farmville, Virginia, United States (23901)
Lat: 37.30N, Lon: 78.39W
Wx Zone: VAZ060
Local Info
Past Weather Observations for Today

NOTE: This archive is for the closest National Weather Service station to Farmville. Information may differ from the station used for current weather conditions.

Click here for Long-term Archive

Time Weather Temperature Dewpoint Humidity Pressure Winds Precip Visibility
23:35
Overcast
72°F / 22°C 66°F / 19°C 83% 29.89 in
(1012 mb)
SW 3.5 mph
(SW 6 kph)
- 10SM
23:15
Overcast
73°F / 23°C 64°F / 18°C 74% 29.89 in
(1012 mb)
SSE 3.5 mph
(SSE 6 kph)
- 10SM
22:55
Mostly Cloudy
73°F / 23°C 64°F / 18°C 74% 29.89 in
(1012 mb)
SSW 3.5 mph
(SSW 6 kph)
- 10SM
22:35
Mostly Cloudy
73°F / 23°C 64°F / 18°C 74% 29.89 in
(1012 mb)
SSE 5.8 mph
(SSE 9 kph)
- 10SM
22:15
Partly Cloudy
73°F / 23°C 64°F / 18°C 74% 29.89 in
(1012 mb)
SW 6.9 mph
(SW 11 kph)
- 10SM
21:55
Clear
75°F / 24°C 64°F / 18°C 69% 29.86 in
(1011 mb)
S 9.2 mph
(S 15 kph)
- 10SM
21:35
Clear
75°F / 24°C 66°F / 19°C 74% 29.86 in
(1011 mb)
S 10.4 mph
(S 17 kph)
- 10SM
21:15
Clear
75°F / 24°C 66°F / 19°C 74% 29.83 in
(1010 mb)
S 6.9 mph
(S 11 kph)
- 7SM
19:15
Clear
79°F / 26°C 68°F / 20°C 70% 29.83 in
(1010 mb)
SSE 3.5 mph
(SSE 6 kph)
- 10SM
18:35
Partly Cloudy
82°F / 28°C 68°F / 20°C 62% 29.83 in
(1010 mb)
SSE 3.5 mph
(SSE 6 kph)
- 10SM
18:15
Clear
82°F / 28°C 68°F / 20°C 62% 29.83 in
(1010 mb)
S 8.1 mph
(S 13 kph)
- 10SM
17:55
Clear
86°F / 30°C 66°F / 19°C 52% 29.83 in
(1010 mb)
SW 4.6 mph
(SW 7 kph)
- 10SM
17:35
Clear
84°F / 29°C 68°F / 20°C 58% 29.83 in
(1010 mb)
SSE 6.9 mph
(SSE 11 kph)
- 10SM
17:15
Clear
88°F / 31°C 68°F / 20°C 52% 29.83 in
(1010 mb)
S 6.9 mph
(S 11 kph)
- 10SM
16:55
Clear
86°F / 30°C 66°F / 19°C 52% 29.83 in
(1010 mb)
SW 3.5 mph
(SW 6 kph)
- 10SM
16:35
Clear
86°F / 30°C 64°F / 18°C 49% 29.83 in
(1010 mb)
SW 5.8 mph
(SW 9 kph)
- 10SM
16:15
Clear
88°F / 31°C 64°F / 18°C 46% 29.83 in
(1010 mb)
S 11.5 mph
(S 19 kph)
- 10SM
15:55
Clear
88°F / 31°C 63°F / 17°C 43% 29.83 in
(1010 mb)
SW 9.2 mph
(SW 15 kph)
- 10SM
15:35
Clear
88°F / 31°C 64°F / 18°C 46% 29.83 in
(1010 mb)
SW 9.2 mph
(SW 15 kph)
- 10SM
15:15
Clear
88°F / 31°C 66°F / 19°C 49% 29.83 in
(1010 mb)
SW 8.1 mph
(SW 13 kph)
- 10SM
14:55
Partly Cloudy
86°F / 30°C 66°F / 19°C 52% 29.86 in
(1011 mb)
SW 5.8 mph
(SW 9 kph)
- 10SM
14:35
Mostly Cloudy
88°F / 31°C 66°F / 19°C 49% 29.86 in
(1011 mb)
SSE 11.5 mph
(SSE 19 kph)
- 10SM
14:15
Partly Cloudy
88°F / 31°C 66°F / 19°C 49% 29.89 in
(1012 mb)
SW 8.1 mph
(SW 13 kph)
- 10SM
13:55
Partly Cloudy
88°F / 31°C 64°F / 18°C 46% 29.89 in
(1012 mb)
SSW 5.8 mph
(SSW 9 kph)
- 10SM
13:35
Partly Cloudy
86°F / 30°C 64°F / 18°C 49% 29.89 in
(1012 mb)
WNW 3.5 mph
(WNW 6 kph)
- 10SM
13:15
Clear
86°F / 30°C 64°F / 18°C 49% 29.89 in
(1012 mb)
SW 8.1 mph
(SW 13 kph)
- 10SM
12:55
Partly Cloudy
86°F / 30°C 66°F / 19°C 52% 29.92 in
(1013 mb)
SSW 5.8 mph
(SSW 9 kph)
- 10SM
12:35
Mostly Cloudy
84°F / 29°C 64°F / 18°C 51% 29.92 in
(1013 mb)
SSW 8.1 mph
(SSW 13 kph)
- 10SM
12:15
Partly Cloudy
86°F / 30°C 68°F / 20°C 55% 29.92 in
(1013 mb)
SW 10.4 mph
(SW 17 kph)
- 10SM
11:55
Clear
84°F / 29°C 66°F / 19°C 55% 29.92 in
(1013 mb)
SW 5.8 mph
(SW 9 kph)
- 10SM
11:35
Clear
84°F / 29°C 66°F / 19°C 55% 29.92 in
(1013 mb)
SW 8.1 mph
(SW 13 kph)
- 10SM
11:15
Clear
82°F / 28°C 66°F / 19°C 58% 29.92 in
(1013 mb)
SW 6.9 mph
(SW 11 kph)
- 10SM
10:55
Clear
84°F / 29°C 66°F / 19°C 55% 29.92 in
(1013 mb)
SW 6.9 mph
(SW 11 kph)
- 10SM
10:35
Partly Cloudy
82°F / 28°C 66°F / 19°C 58% 29.92 in
(1013 mb)
SW 4.6 mph
(SW 7 kph)
- 10SM
10:15
Partly Cloudy
82°F / 28°C 66°F / 19°C 58% 29.92 in
(1013 mb)
SSW 5.8 mph
(SSW 9 kph)
- 10SM
09:55
Partly Cloudy
82°F / 28°C 66°F / 19°C 58% 29.92 in
(1013 mb)
SW 8.1 mph
(SW 13 kph)
- 10SM
09:35
Partly Cloudy
81°F / 27°C 66°F / 19°C 62% 29.92 in
(1013 mb)
SW 5.8 mph
(SW 9 kph)
- 10SM
09:15
Clear
81°F / 27°C 66°F / 19°C 62% 29.92 in
(1013 mb)
SW 6.9 mph
(SW 11 kph)
- 10SM
08:55
Clear
79°F / 26°C 64°F / 18°C 61% 29.95 in
(1014 mb)
SW 5.8 mph
(SW 9 kph)
- 10SM
08:35
Clear
79°F / 26°C 66°F / 19°C 65% 29.95 in
(1014 mb)
S 4.6 mph
(S 7 kph)
- 10SM
08:15
Clear
77°F / 25°C 66°F / 19°C 69% 29.95 in
(1014 mb)
SSE 6.9 mph
(SSE 11 kph)
- 10SM
07:55
Clear
75°F / 24°C 66°F / 19°C 74% 29.95 in
(1014 mb)
S 9.2 mph
(S 15 kph)
- 10SM
07:35
Clear
73°F / 23°C 68°F / 20°C 83% 29.95 in
(1014 mb)
SSE 6.9 mph
(SSE 11 kph)
- 10SM
07:15
Clear
72°F / 22°C 70°F / 21°C 94% 29.92 in
(1013 mb)
S 4.6 mph
(S 7 kph)
- 10SM
06:55
Clear
70°F / 21°C 70°F / 21°C 100% 29.92 in
(1013 mb)
S 3.5 mph
(S 6 kph)
- 10SM
06:35
Clear
68°F / 20°C 68°F / 20°C 100% 29.92 in
(1013 mb)
Calm - 10SM
06:15
Clear
66°F / 19°C 66°F / 19°C 100% 29.92 in
(1013 mb)
Calm - 10SM
05:55
Clear
64°F / 18°C 64°F / 18°C 100% 29.92 in
(1013 mb)
Calm - 7SM
05:35
Clear
64°F / 18°C 64°F / 18°C 100% 29.92 in
(1013 mb)
Calm - 7SM
05:15
Obscured
Fog And Mist
63°F / 17°C 63°F / 17°C 100% 29.92 in
(1013 mb)
Calm - 3/4SM
04:55
Partly Cloudy
Fog And Mist
63°F / 17°C 63°F / 17°C 100% 29.89 in
(1012 mb)
Calm - 4SM
04:35
Mostly Cloudy
Fog
63°F / 17°C 63°F / 17°C 100% 29.89 in
(1012 mb)
Calm - 1/2SM
04:15
Clear
Fog And Mist
64°F / 18°C 64°F / 18°C 100% 29.89 in
(1012 mb)
Calm - 5SM
03:55
Clear
Fog And Mist
64°F / 18°C 64°F / 18°C 100% 29.92 in
(1013 mb)
Calm - 3SM
03:35
Clear
64°F / 18°C 64°F / 18°C 100% 29.92 in
(1013 mb)
Calm - 7SM
03:15
Clear
64°F / 18°C 64°F / 18°C 100% 29.89 in
(1012 mb)
Calm - 7SM
02:55
Clear
66°F / 19°C 66°F / 19°C 100% 29.89 in
(1012 mb)
Calm - 10SM
02:35
Clear
66°F / 19°C 66°F / 19°C 100% 29.89 in
(1012 mb)
Calm - 10SM
02:15
Clear
66°F / 19°C 66°F / 19°C 100% 29.92 in
(1013 mb)
Calm - 10SM
01:55
Clear
66°F / 19°C 66°F / 19°C 100% 29.92 in
(1013 mb)
Calm - 10SM
01:35
Clear
66°F / 19°C 66°F / 19°C 100% 29.92 in
(1013 mb)
Calm - 10SM
01:15
Clear
66°F / 19°C 66°F / 19°C 100% 29.92 in
(1013 mb)
Calm - 10SM
00:55
Clear
66°F / 19°C 66°F / 19°C 100% 29.92 in
(1013 mb)
Calm - 7SM
00:35
Obscured
Fog And Mist
64°F / 18°C 64°F / 18°C 100% 29.92 in
(1013 mb)
Calm - 1 1/2SM
00:15
Clear
66°F / 19°C 66°F / 19°C 100% 29.92 in
(1013 mb)
Calm - 10SM
Time Weather Temperature Dewpoint Humidity Pressure Winds Precip Visibility


Weather for websites

WeatherForYou.com, LLC is not responsible for any damages or problems caused by this service. Current weather conditions are obtained from the closest station including government and personal stations which may have varying degrees of accuracy. Weather forecasts are derived from the NOAA NDFD. Like all things, this site belongs to Jesus Christ... He just trusts us to maintain it. If you have any questions or comments email webmaster@weatherforyou.com

Copyright © 2015, WeatherForYou.com LLC. All rights reserved.